Location: Oberwangen
(47.4286°N, 8.9679°E)
Time: 19:34:06
(UTC+00:00)

Cosmos 1953 Rocket - Pass Details

Date: 23 October 2021
Orbit: 603 x 635 km, 82.5° (Epoch: 03 December)

Event Time Altitude Azimuth Distance (km) Brightness Sun altitude
Rises 19:40:43 0° 342° (NNW) 2,945 7.5 -33.9°
Reaches altitude 10° 19:43:08 10° 333° (NNW) 2,030 6.7 -34.3°
Enters shadow 19:44:52 21° 319° (NW) 1,451 5.9 -34.6°
